Tracking 19831 objects as of 23-Aug-2019
HD Live streaming from Space Station
objects crossing your sky now

STELLA

Track STELLA now!
10-day predictions
STELLA is classified as:


NORAD ID: 22824
Int'l Code: 1993-061B
Perigee: 803.8 km
Apogee: 811.5 km
Inclination: 98.9 °
Period: 100.9 minutes
Semi major axis: 7178 km
RCS: 0.167 m2 (medium)
Launch date: September 26, 1993
Source: France (FR)
Launch site: FRENCH GUIANA (FRGUI)
aabbcc
Your satellite tracking list
Your tracking list is empty




NASA's NSSDC Master Catalog

Two Line Element Set (TLE):
1 22824U 93061B   19235.44626170 -.00000034  00000-0  51279-5 0  9994
2 22824  98.9287 214.3188 0005379 250.4577 225.5125 14.27377722349745
Source of the keplerian elements: AFSPC